This is the latest recevied weather packets stored in our database for station/object K8BCO. If no packets are shown the sender has not sent any weather packets the latest 10 day(s).
| Time | Temp. | Humidity | Pressure | Rain* | Wind** | Luminosity | Snow |
|---|---|---|---|---|---|---|---|
| 1777885521 | 10° C | 67% | 995 hPa | 0 mm | - | 0 W/m² | - |
| 1777884923 | 10° C | 67% | 995.2 hPa | 0 mm | - | 0 W/m² | - |
| 1777884316 | 10° C | 66% | 995.4 hPa | 0 mm | - | 0 W/m² | - |
| 1777883716 | 10° C | 65% | 995.6 hPa | 0 mm | - | 0 W/m² | - |
| 1777883116 | 10° C | 64% | 995.7 hPa | 0 mm | - | 0 W/m² | - |
| 1777882517 | 10° C | 63% | 996 hPa | 0 mm | - | 0 W/m² | - |
| 1777881917 | 10° C | 62% | 996.1 hPa | 0 mm | - | 0 W/m² | - |
| 1777881317 | 10° C | 61% | 996.2 hPa | 0 mm | - | 0 W/m² | - |
| 1777880718 | 10° C | 58% | 996.4 hPa | 0 mm | - | 0 W/m² | - |
| 1777880117 | 10° C | 54% | 996.5 hPa | 0 mm | - | 0 W/m² | - |
| 1777879517 | 10° C | 46% | 996.7 hPa | 0 mm | - | 0 W/m² | - |
| 1777878917 | 10.56° C | 40% | 996.9 hPa | 0 mm | - | 0 W/m² | - |
| 1777878318 | 10.56° C | 40% | 997.1 hPa | 0 mm | - | 0 W/m² | - |
| 1777877718 | 10.56° C | 40% | 997.2 hPa | 0 mm | - | 0 W/m² | - |
| 1777877117 | 10° C | 40% | 997.4 hPa | 0 mm | - | 0 W/m² | - |
| 1777876518 | 10° C | 41% | 997.6 hPa | 0 mm | - | 0 W/m² | - |
| 1777875917 | 9.44° C | 44% | 997.7 hPa | 0 mm | - | 0 W/m² | - |
| 1777875316 | 7.78° C | 48% | 998 hPa | 0 mm | - | 0 W/m² | - |
| 1777874719 | 6.67° C | 54% | 998.1 hPa | 0 mm | - | 0 W/m² | - |
| 1777874116 | 4.44° C | 70% | 998.5 hPa | 0 mm | - | 0 W/m² | - |
| 1777873516 | 3.89° C | 74% | 998.8 hPa | 0 mm | - | 0 W/m² | - |
| 1777872916 | 3.89° C | 76% | 999.1 hPa | 0 mm | - | 0 W/m² | - |
| 1777872317 | 3.89° C | 75% | 999.4 hPa | 0 mm | - | 0 W/m² | - |
| 1777871716 | 4.44° C | 73% | 999.5 hPa | 0 mm | - | 0 W/m² | - |
| 1777871116 | 5° C | 68% | 999.7 hPa | 0 mm | - | 0 W/m² | - |
* Rain latest hour (hover to see other rain measurements)
** Current wind speed in m/s (hover to see current wind gust speed)